Time,TemperatureF,DewpointF,PressureIn,WindDirection,WindDirectionDegrees,WindSpeedMPH,WindSpeedGustMPH,Humidity,HourlyPrecipIn,Conditions,Clouds,dailyrainin,SoftwareType,DateUTC
2013-01-20 00:00:00,43.3,36.9,29.92,South,184,0.0,7.0,78,0.00,,,0.02,Wunderground v.1.15,2013-01-20 05:00:00,
2013-01-20 00:02:00,43.3,36.9,29.92,SSE,153,3.0,3.0,78,0.00,,,0.00,Wunderground v.1.15,2013-01-20 05:02:00,
2013-01-20 00:03:00,43.3,36.9,29.92,SSW,208,7.0,7.0,78,0.00,,,0.00,Wunderground v.1.15,2013-01-20 05:03:00,
2013-01-20 00:08:00,43.4,37.0,29.92,South,187,3.0,7.0,78,0.00,,,0.00,Wunderground v.1.15,2013-01-20 05:08:00,
2013-01-20 00:11:00,43.5,37.1,29.92,SSE,149,1.0,3.0,78,0.00,,,0.00,Wunderground v.1.15,2013-01-20 05:11:00,
2013-01-20 00:16:00,43.5,37.1,29.92,South,190,1.0,3.0,78,0.00,,,0.00,Wunderground v.1.15,2013-01-20 05:16:00,
2013-01-20 00:21:00,43.5,37.1,29.92,South,184,2.0,2.0,78,0.00,,,0.00,Wunderground v.1.15,2013-01-20 05:21:00,
2013-01-20 00:27:00,43.4,37.0,29.92,South,175,4.0,5.0,78,0.00,,,0.00,Wunderground v.1.15,2013-01-20 05:27:00,
2013-01-20 00:32:00,43.5,37.1,29.91,SSW,202,2.0,3.0,78,0.00,,,0.00,Wunderground v.1.15,2013-01-20 05:32:00,
2013-01-20 00:38:00,43.7,37.3,29.91,SSE,164,3.0,6.0,78,0.00,,,0.00,Wunderground v.1.15,2013-01-20 05:38:00,
2013-01-20 00:44:00,43.8,37.4,29.90,SSW,207,3.0,5.0,78,0.00,,,0.00,Wunderground v.1.15,2013-01-20 05:44:00,
2013-01-20 00:50:00,43.8,37.4,29.90,ENE,76,3.0,3.0,78,0.00,,,0.00,Wunderground v.1.15,2013-01-20 05:50:00,
2013-01-20 00:55:00,43.8,38.0,29.90,West,265,4.0,-999.0,79,-99.99,,,0.00,weatherlink.com 1.10,2013-01-20 05:55:00,
2013-01-20 01:00:00,43.9,37.8,29.90,SSW,196,5.0,5.0,79,0.00,,,0.00,Wunderground v.1.15,2013-01-20 06:00:00,
2013-01-20 01:06:00,44.0,37.9,29.89,WNW,284,1.0,5.0,79,0.00,,,0.00,Wunderground v.1.15,2013-01-20 06:06:00,
2013-01-20 01:11:00,44.0,37.9,29.89,NNW,341,3.0,5.0,79,0.00,,,0.00,Wunderground v.1.15,2013-01-20 06:11:00,
2013-01-20 01:16:00,44.2,38.1,29.89,WSW,257,4.0,7.0,79,0.00,,,0.00,Wunderground v.1.15,2013-01-20 06:16:00,
2013-01-20 01:21:00,44.2,38.1,29.89,SW,225,3.0,4.0,79,0.00,,,0.00,Wunderground v.1.15,2013-01-20 06:21:00,
2013-01-20 01:26:00,44.2,38.1,29.88,SSE,151,2.0,5.0,79,0.00,,,0.00,Wunderground v.1.15,2013-01-20 06:26:00,
2013-01-20 01:32:00,44.0,37.9,29.88,WSW,253,3.0,4.0,79,0.00,,,0.00,Wunderground v.1.15,2013-01-20 06:32:00,
2013-01-20 01:38:00,44.0,37.9,29.88,ENE,68,2.0,4.0,79,0.00,,,0.00,Wunderground v.1.15,2013-01-20 06:38:00,
2013-01-20 01:43:00,43.8,37.7,29.88,ESE,120,3.0,6.0,79,0.00,,,0.00,Wunderground v.1.15,2013-01-20 06:43:00,
2013-01-20 01:48:00,43.8,37.7,29.87,South,174,3.0,6.0,79,0.00,,,0.00,Wunderground v.1.15,2013-01-20 06:48:00,
2013-01-20 01:53:00,43.8,38.0,29.86,SE,126,2.0,3.0,80,0.00,,,0.00,Wunderground v.1.15,2013-01-20 06:53:00,
2013-01-20 01:59:00,43.7,37.6,29.86,SE,146,6.0,8.0,79,0.00,,,0.00,Wunderground v.1.15,2013-01-20 06:59:00,
2013-01-20 02:04:00,43.7,37.6,29.86,SSE,155,3.0,9.0,79,0.00,,,0.00,Wunderground v.1.15,2013-01-20 07:04:00,
2013-01-20 02:09:00,43.7,37.6,29.86,South,186,2.0,12.0,79,0.00,,,0.00,Wunderground v.1.15,2013-01-20 07:09:00,
2013-01-20 02:14:00,43.6,37.8,29.86,SE,135,3.0,7.0,80,0.00,,,0.00,Wunderground v.1.15,2013-01-20 07:14:00,
2013-01-20 02:19:00,43.5,37.7,29.87,SE,145,0.0,7.0,80,0.00,,,0.00,Wunderground v.1.15,2013-01-20 07:19:00,
2013-01-20 02:24:00,43.3,37.5,29.86,ESE,114,0.0,5.0,80,0.00,,,0.00,Wunderground v.1.15,2013-01-20 07:24:00,
2013-01-20 02:29:00,43.0,37.6,29.86,South,173,3.0,10.0,81,0.00,,,0.00,Wunderground v.1.15,2013-01-20 07:29:00,
2013-01-20 02:34:00,42.8,37.4,29.86,SSW,213,2.0,10.0,81,0.00,,,0.00,Wunderground v.1.15,2013-01-20 07:34:00,
2013-01-20 02:39:00,42.7,37.3,29.86,SSW,204,2.0,10.0,81,0.00,,,0.00,Wunderground v.1.15,2013-01-20 07:39:00,
2013-01-20 02:44:00,42.6,37.5,29.85,SSE,148,3.0,6.0,82,0.00,,,0.00,Wunderground v.1.15,2013-01-20 07:44:00,
2013-01-20 02:49:00,42.4,37.3,29.85,South,177,0.0,6.0,82,0.00,,,0.00,Wunderground v.1.15,2013-01-20 07:49:00,
2013-01-20 02:54:00,42.2,37.1,29.84,ESE,115,4.0,5.0,82,0.00,,,0.00,Wunderground v.1.15,2013-01-20 07:54:00,
2013-01-20 02:59:00,42.1,37.0,29.84,SE,141,2.0,6.0,82,0.00,,,0.00,Wunderground v.1.15,2013-01-20 07:59:00,
2013-01-20 03:04:00,42.0,37.2,29.84,South,177,5.0,5.0,83,0.00,,,0.00,Wunderground v.1.15,2013-01-20 08:04:00,
2013-01-20 03:09:00,42.0,37.2,29.84,SSW,198,7.0,8.0,83,0.00,,,0.00,Wunderground v.1.15,2013-01-20 08:09:00,
2013-01-20 03:14:00,42.1,37.0,29.83,SSW,209,1.0,4.0,82,0.00,,,0.00,Wunderground v.1.15,2013-01-20 08:14:00,
2013-01-20 03:19:00,42.0,36.9,29.83,South,181,0.0,4.0,82,0.00,,,0.00,Wunderground v.1.15,2013-01-20 08:19:00,
2013-01-20 03:24:00,41.9,37.1,29.83,East,85,0.0,9.0,83,0.00,,,0.00,Wunderground v.1.15,2013-01-20 08:24:00,
2013-01-20 03:29:00,41.8,37.0,29.83,SW,233,3.0,9.0,83,0.00,,,0.00,Wunderground v.1.15,2013-01-20 08:29:00,
2013-01-20 03:34:00,41.8,37.3,29.83,SW,224,0.0,7.0,84,0.00,,,0.00,Wunderground v.1.15,2013-01-20 08:34:00,
2013-01-20 03:39:00,41.7,36.9,29.84,SW,236,0.0,7.0,83,0.00,,,0.00,Wunderground v.1.15,2013-01-20 08:39:00,
2013-01-20 03:44:00,41.5,37.0,29.83,SSE,161,0.0,3.0,84,0.00,,,0.00,Wunderground v.1.15,2013-01-20 08:44:00,
2013-01-20 03:49:00,41.3,36.8,29.83,SW,217,2.0,5.0,84,0.00,,,0.00,Wunderground v.1.15,2013-01-20 08:49:00,
2013-01-20 03:54:00,41.3,37.1,29.82,SSW,205,3.0,5.0,85,0.00,,,0.00,Wunderground v.1.15,2013-01-20 08:54:00,
2013-01-20 03:59:00,41.2,36.7,29.82,SSW,192,2.0,5.0,84,0.00,,,0.00,Wunderground v.1.15,2013-01-20 08:59:00,
2013-01-20 04:04:00,41.1,36.6,29.82,SSW,192,0.0,2.0,84,0.00,,,0.00,Wunderground v.1.15,2013-01-20 09:04:00,
2013-01-20 04:09:00,41.0,36.5,29.81,SSE,164,1.0,6.0,84,0.00,,,0.00,Wunderground v.1.15,2013-01-20 09:09:00,
2013-01-20 04:14:00,41.1,36.9,29.81,SW,226,0.0,8.0,85,0.00,,,0.00,Wunderground v.1.15,2013-01-20 09:14:00,
2013-01-20 04:19:00,41.3,36.8,29.81,SSW,204,1.0,8.0,84,0.00,,,0.00,Wunderground v.1.15,2013-01-20 09:19:00,
2013-01-20 04:24:00,41.4,36.9,29.81,South,187,2.0,6.0,84,0.00,,,0.00,Wunderground v.1.15,2013-01-20 09:24:00,
2013-01-20 04:29:00,41.4,36.9,29.81,South,187,0.0,6.0,84,0.00,,,0.00,Wunderground v.1.15,2013-01-20 09:29:00,
2013-01-20 04:34:00,41.4,36.9,29.81,SSW,192,2.0,10.0,84,0.00,,,0.00,Wunderground v.1.15,2013-01-20 09:34:00,
2013-01-20 04:39:00,41.6,36.8,29.81,West,279,3.0,10.0,83,0.00,,,0.00,Wunderground v.1.15,2013-01-20 09:39:00,
2013-01-20 04:44:00,41.7,36.9,29.80,ESE,111,3.0,7.0,83,0.00,,,0.00,Wunderground v.1.15,2013-01-20 09:44:00,
2013-01-20 04:49:00,41.7,36.9,29.80,SE,132,1.0,7.0,83,0.00,,,0.00,Wunderground v.1.15,2013-01-20 09:49:00,
2013-01-20 04:54:00,41.6,36.8,29.80,South,178,0.0,5.0,83,0.00,,,0.00,Wunderground v.1.15,2013-01-20 09:54:00,
2013-01-20 04:59:00,41.6,36.8,29.79,South,181,2.0,5.0,83,0.00,,,0.00,Wunderground v.1.15,2013-01-20 09:59:00,
2013-01-20 05:04:00,41.6,36.8,29.79,SSW,207,0.0,9.0,83,0.00,,,0.00,Wunderground v.1.15,2013-01-20 10:04:00,
2013-01-20 05:09:00,41.7,36.6,29.78,South,188,1.0,11.0,82,0.00,,,0.00,Wunderground v.1.15,2013-01-20 10:09:00,
2013-01-20 05:14:00,41.7,36.6,29.78,SSW,212,3.0,7.0,82,0.00,,,0.00,Wunderground v.1.15,2013-01-20 10:14:00,
2013-01-20 05:19:00,41.7,36.6,29.78,SW,217,10.0,10.0,82,0.00,,,0.00,Wunderground v.1.15,2013-01-20 10:19:00,
2013-01-20 05:24:00,41.8,36.7,29.77,SSE,151,2.0,7.0,82,0.00,,,0.00,Wunderground v.1.15,2013-01-20 10:24:00,
2013-01-20 05:29:00,41.9,36.8,29.77,SE,126,4.0,7.0,82,0.00,,,0.00,Wunderground v.1.15,2013-01-20 10:29:00,
2013-01-20 05:34:00,41.9,36.5,29.77,South,190,1.0,8.0,81,0.00,,,0.00,Wunderground v.1.15,2013-01-20 10:34:00,
2013-01-20 05:39:00,41.9,36.5,29.76,SSW,192,3.0,8.0,81,0.00,,,0.00,Wunderground v.1.15,2013-01-20 10:39:00,
2013-01-20 05:44:00,41.9,36.5,29.76,South,175,2.0,8.0,81,0.00,,,0.00,Wunderground v.1.15,2013-01-20 10:44:00,
2013-01-20 05:49:00,41.8,36.4,29.76,NNE,22,1.0,8.0,81,0.00,,,0.00,Wunderground v.1.15,2013-01-20 10:49:00,
2013-01-20 05:54:00,41.8,36.4,29.75,SW,216,2.0,10.0,81,0.00,,,0.00,Wunderground v.1.15,2013-01-20 10:54:00,
2013-01-20 05:59:00,41.8,36.4,29.75,SW,216,2.0,10.0,81,0.00,,,0.00,Wunderground v.1.15,2013-01-20 10:59:00,
2013-01-20 06:04:00,41.8,36.1,29.75,SSW,197,2.0,9.0,80,0.00,,,0.00,Wunderground v.1.15,2013-01-20 11:04:00,
2013-01-20 06:09:00,41.8,36.1,29.75,South,187,4.0,9.0,80,0.00,,,0.00,Wunderground v.1.15,2013-01-20 11:09:00,
2013-01-20 06:14:00,41.8,36.1,29.75,West,266,3.0,5.0,80,0.00,,,0.00,Wunderground v.1.15,2013-01-20 11:14:00,
2013-01-20 06:19:00,41.6,35.9,29.75,SSE,153,8.0,8.0,80,0.00,,,0.00,Wunderground v.1.15,2013-01-20 11:19:00,
2013-01-20 06:24:00,41.6,35.9,29.74,ESE,111,3.0,6.0,80,0.00,,,0.00,Wunderground v.1.15,2013-01-20 11:24:00,
2013-01-20 06:29:00,41.5,35.8,29.74,SSW,205,2.0,6.0,80,0.00,,,0.00,Wunderground v.1.15,2013-01-20 11:29:00,
2013-01-20 06:34:00,41.4,35.7,29.74,SSW,192,3.0,8.0,80,0.00,,,0.00,Wunderground v.1.15,2013-01-20 11:34:00,
2013-01-20 06:39:00,41.4,35.7,29.74,WSW,251,2.0,8.0,80,0.00,,,0.00,Wunderground v.1.15,2013-01-20 11:39:00,
2013-01-20 06:44:00,41.4,35.7,29.74,South,183,4.0,5.0,80,0.00,,,0.00,Wunderground v.1.15,2013-01-20 11:44:00,
2013-01-20 06:49:00,41.3,35.6,29.74,SE,136,3.0,5.0,80,0.00,,,0.00,Wunderground v.1.15,2013-01-20 11:49:00,
2013-01-20 06:54:00,41.1,35.4,29.75,South,178,0.0,4.0,80,0.00,,,0.00,Wunderground v.1.15,2013-01-20 11:54:00,
2013-01-20 06:59:00,41.0,35.6,29.74,South,172,4.0,7.0,81,0.00,,,0.00,Wunderground v.1.15,2013-01-20 11:59:00,
2013-01-20 07:04:00,40.9,35.5,29.74,West,269,4.0,5.0,81,0.00,,,0.00,Wunderground v.1.15,2013-01-20 12:04:00,
2013-01-20 07:09:00,40.9,35.5,29.74,SSW,200,4.0,5.0,81,0.00,,,0.00,Wunderground v.1.15,2013-01-20 12:09:00,
2013-01-20 07:14:00,41.0,35.6,29.74,SSW,198,2.0,6.0,81,0.00,,,0.00,Wunderground v.1.15,2013-01-20 12:14:00,
2013-01-20 07:19:00,41.2,35.5,29.74,NNE,33,2.0,7.0,80,0.00,,,0.00,Wunderground v.1.15,2013-01-20 12:19:00,
2013-01-20 07:25:00,41.2,35.5,29.74,SW,228,0.0,7.0,80,0.00,,,0.00,Wunderground v.1.15,2013-01-20 12:25:00,
2013-01-20 07:30:00,41.2,35.5,29.73,South,177,2.0,2.0,80,0.00,,,0.00,Wunderground v.1.15,2013-01-20 12:30:00,
2013-01-20 07:35:00,41.1,35.4,29.73,SSW,212,0.0,4.0,80,0.00,,,0.00,Wunderground v.1.15,2013-01-20 12:35:00,
2013-01-20 07:40:00,41.3,35.6,29.73,SW,229,1.0,2.0,80,0.00,,,0.00,Wunderground v.1.15,2013-01-20 12:40:00,
2013-01-20 07:45:00,41.5,35.5,29.72,SSE,161,1.0,7.0,79,0.00,,,0.00,Wunderground v.1.15,2013-01-20 12:45:00,
2013-01-20 07:50:00,41.6,35.6,29.72,SW,225,0.0,2.0,79,0.00,,,0.00,Wunderground v.1.15,2013-01-20 12:50:00,
2013-01-20 07:55:00,41.9,35.9,29.72,SW,222,0.0,9.0,79,0.00,,,0.00,Wunderground v.1.15,2013-01-20 12:55:00,
2013-01-20 08:00:00,42.0,36.0,29.72,SW,216,1.0,3.0,79,0.00,,,0.00,Wunderground v.1.15,2013-01-20 13:00:00,
2013-01-20 08:05:00,42.1,36.1,29.72,NNW,340,0.0,6.0,79,0.00,,,0.00,Wunderground v.1.15,2013-01-20 13:05:00,
2013-01-20 08:10:00,42.3,35.9,29.72,SW,234,0.0,2.0,78,0.00,,,0.00,Wunderground v.1.15,2013-01-20 13:10:00,
2013-01-20 08:15:00,42.4,36.0,29.72,South,183,1.0,6.0,78,0.00,,,0.00,Wunderground v.1.15,2013-01-20 13:15:00,
2013-01-20 08:20:00,42.6,36.2,29.72,South,178,0.0,2.0,78,0.00,,,0.00,Wunderground v.1.15,2013-01-20 13:20:00,
2013-01-20 08:25:00,42.8,36.1,29.72,West,266,2.0,12.0,77,0.00,,,0.00,Wunderground v.1.15,2013-01-20 13:25:00,
2013-01-20 08:30:00,43.0,36.6,29.72,SSE,161,1.0,4.0,78,0.00,,,0.00,Wunderground v.1.15,2013-01-20 13:30:00,
2013-01-20 08:35:00,43.2,36.5,29.72,SW,215,0.0,5.0,77,0.00,,,0.00,Wunderground v.1.15,2013-01-20 13:35:00,
2013-01-20 08:40:00,43.4,36.7,29.72,WSW,238,3.0,4.0,77,0.00,,,0.00,Wunderground v.1.15,2013-01-20 13:40:00,
2013-01-20 08:45:00,43.7,36.6,29.72,WSW,244,5.0,11.0,76,0.00,,,0.00,Wunderground v.1.15,2013-01-20 13:45:00,
2013-01-20 08:50:00,44.0,36.6,29.72,WNW,293,7.0,8.0,75,0.00,,,0.00,Wunderground v.1.15,2013-01-20 13:50:00,
2013-01-20 08:55:00,44.3,36.9,29.72,NW,306,3.0,8.0,75,0.00,,,0.00,Wunderground v.1.15,2013-01-20 13:55:00,
2013-01-20 09:00:00,44.5,36.7,29.72,SW,217,1.0,4.0,74,0.00,,,0.00,Wunderground v.1.15,2013-01-20 14:00:00,
2013-01-20 09:05:00,44.8,36.7,29.72,SSE,158,9.0,9.0,73,0.00,,,0.00,Wunderground v.1.15,2013-01-20 14:05:00,
2013-01-20 09:10:00,45.1,37.0,29.72,South,181,2.0,5.0,73,0.00,,,0.00,Wunderground v.1.15,2013-01-20 14:10:00,
2013-01-20 09:15:00,45.2,36.7,29.73,NNE,31,1.0,5.0,72,0.00,,,0.00,Wunderground v.1.15,2013-01-20 14:15:00,
2013-01-20 09:20:00,45.4,36.9,29.73,WNW,288,5.0,5.0,72,0.00,,,0.00,Wunderground v.1.15,2013-01-20 14:20:00,
2013-01-20 09:25:00,45.6,36.7,29.72,SW,221,1.0,5.0,71,0.00,,,0.00,Wunderground v.1.15,2013-01-20 14:25:00,
2013-01-20 09:30:00,45.9,36.7,29.72,SSW,209,5.0,8.0,70,0.00,,,0.00,Wunderground v.1.15,2013-01-20 14:30:00,
2013-01-20 09:35:00,46.1,36.9,29.72,NNW,329,6.0,8.0,70,0.00,,,0.00,Wunderground v.1.15,2013-01-20 14:35:00,
2013-01-20 09:40:00,46.4,36.8,29.73,NNE,16,0.0,2.0,69,0.00,,,0.00,Wunderground v.1.15,2013-01-20 14:40:00,
2013-01-20 09:45:00,46.6,36.6,29.73,WSW,240,1.0,4.0,68,0.00,,,0.00,Wunderground v.1.15,2013-01-20 14:45:00,
2013-01-20 09:50:00,46.9,36.5,29.73,South,188,2.0,6.0,67,0.00,,,0.00,Wunderground v.1.15,2013-01-20 14:50:00,
2013-01-20 09:55:00,47.0,36.6,29.73,SSW,205,2.0,8.0,67,0.00,,,0.00,Wunderground v.1.15,2013-01-20 14:55:00,
2013-01-20 10:00:00,47.3,36.5,29.73,WNW,298,3.0,11.0,66,0.00,,,0.00,Wunderground v.1.15,2013-01-20 15:00:00,
2013-01-20 10:05:00,47.7,36.1,29.73,SSW,213,3.0,11.0,64,0.00,,,0.00,Wunderground v.1.15,2013-01-20 15:05:00,
2013-01-20 10:10:00,48.0,36.4,29.73,NW,308,1.0,4.0,64,0.00,,,0.00,Wunderground v.1.15,2013-01-20 15:10:00,
2013-01-20 10:15:00,48.3,36.3,29.73,South,190,14.0,14.0,63,0.00,,,0.00,Wunderground v.1.15,2013-01-20 15:15:00,
2013-01-20 10:20:00,48.5,36.9,29.73,East,90,1.0,3.0,64,0.00,,,0.00,Wunderground v.1.15,2013-01-20 15:20:00,
2013-01-20 10:25:00,48.7,36.7,29.72,South,182,6.0,9.0,63,0.00,,,0.00,Wunderground v.1.15,2013-01-20 15:25:00,
2013-01-20 10:30:00,49.0,36.9,29.72,NNE,19,2.0,5.0,63,0.00,,,0.00,Wunderground v.1.15,2013-01-20 15:30:00,
2013-01-20 10:35:00,49.2,36.3,29.72,West,281,6.0,10.0,61,0.00,,,0.00,Wunderground v.1.15,2013-01-20 15:35:00,
2013-01-20 10:40:00,49.4,36.5,29.72,SW,224,10.0,11.0,61,0.00,,,0.00,Wunderground v.1.15,2013-01-20 15:40:00,
2013-01-20 10:45:00,49.5,35.8,29.71,WNW,302,4.0,11.0,59,0.00,,,0.00,Wunderground v.1.15,2013-01-20 15:45:00,
2013-01-20 10:50:00,49.6,35.4,29.71,South,181,3.0,9.0,58,0.00,,,0.00,Wunderground v.1.15,2013-01-20 15:50:00,
2013-01-20 10:55:00,49.7,35.5,29.70,West,267,3.0,10.0,58,0.00,,,0.00,Wunderground v.1.15,2013-01-20 15:55:00,
2013-01-20 11:00:00,49.9,35.7,29.70,SW,231,6.0,6.0,58,0.00,,,0.00,Wunderground v.1.15,2013-01-20 16:00:00,
2013-01-20 11:05:00,50.0,35.4,29.69,NNW,327,0.0,11.0,57,0.00,,,0.00,Wunderground v.1.15,2013-01-20 16:05:00,
2013-01-20 11:10:00,50.1,35.4,29.69,SSW,212,6.0,7.0,57,0.00,,,0.00,Wunderground v.1.15,2013-01-20 16:10:00,
2013-01-20 11:15:00,50.3,36.1,29.68,WSW,256,3.0,8.0,58,0.00,,,0.00,Wunderground v.1.15,2013-01-20 16:15:00,
2013-01-20 11:20:00,50.4,35.3,29.68,SE,132,4.0,5.0,56,0.00,,,0.00,Wunderground v.1.15,2013-01-20 16:20:00,
2013-01-20 11:25:00,50.4,35.7,29.67,SW,219,4.0,9.0,57,0.00,,,0.00,Wunderground v.1.15,2013-01-20 16:25:00,
2013-01-20 11:30:00,50.5,35.8,29.67,SSW,197,4.0,7.0,57,0.00,,,0.00,Wunderground v.1.15,2013-01-20 16:30:00,
2013-01-20 11:36:00,50.8,36.1,29.67,SW,235,0.0,10.0,57,0.00,,,0.00,Wunderground v.1.15,2013-01-20 16:36:00,
2013-01-20 11:41:00,51.0,35.8,29.67,ESE,113,2.0,8.0,56,0.00,,,0.00,Wunderground v.1.15,2013-01-20 16:41:00,
2013-01-20 11:45:00,51.2,36.9,29.66,NW,317,3.0,10.0,58,0.00,,,0.00,Wunderground v.1.15,2013-01-20 16:45:00,
2013-01-20 11:50:00,51.4,35.8,29.66,SSW,207,3.0,4.0,55,0.00,,,0.00,Wunderground v.1.15,2013-01-20 16:50:00,
2013-01-20 11:56:00,51.6,36.9,29.66,SW,229,1.0,7.0,57,0.00,,,0.00,Wunderground v.1.15,2013-01-20 16:56:00,
2013-01-20 12:01:00,51.9,36.2,29.65,NW,316,4.0,5.0,55,0.00,,,0.00,Wunderground v.1.15,2013-01-20 17:01:00,
2013-01-20 12:06:00,52.1,35.9,29.66,South,181,5.0,8.0,54,0.00,,,0.00,Wunderground v.1.15,2013-01-20 17:06:00,
2013-01-20 12:11:00,52.2,36.0,29.65,South,188,4.0,9.0,54,0.00,,,0.00,Wunderground v.1.15,2013-01-20 17:11:00,
2013-01-20 12:16:00,52.3,35.7,29.64,SE,142,8.0,16.0,53,0.00,,,0.00,Wunderground v.1.15,2013-01-20 17:16:00,
2013-01-20 12:21:00,52.4,35.8,29.65,West,276,1.0,9.0,53,0.00,,,0.00,Wunderground v.1.15,2013-01-20 17:21:00,
2013-01-20 12:26:00,52.5,35.8,29.65,WNW,298,3.0,12.0,53,0.00,,,0.00,Wunderground v.1.15,2013-01-20 17:26:00,
2013-01-20 12:31:00,52.8,36.1,29.65,SW,226,3.0,11.0,53,0.00,,,0.00,Wunderground v.1.15,2013-01-20 17:31:00,
2013-01-20 12:36:00,53.1,35.9,29.64,NNW,340,2.0,11.0,52,0.00,,,0.00,Wunderground v.1.15,2013-01-20 17:36:00,
2013-01-20 12:41:00,53.2,35.5,29.64,West,278,7.0,11.0,51,0.00,,,0.00,Wunderground v.1.15,2013-01-20 17:41:00,
2013-01-20 12:46:00,53.5,35.3,29.63,WNW,298,0.0,11.0,50,0.00,,,0.00,Wunderground v.1.15,2013-01-20 17:46:00,
2013-01-20 12:51:00,53.5,35.8,29.64,SSW,208,2.0,10.0,51,0.00,,,0.00,Wunderground v.1.15,2013-01-20 17:51:00,
2013-01-20 12:56:00,53.5,35.8,29.63,WSW,255,2.0,14.0,51,0.00,,,0.00,Wunderground v.1.15,2013-01-20 17:56:00,
2013-01-20 13:01:00,53.5,34.8,29.63,WNW,289,1.0,10.0,49,0.00,,,0.00,Wunderground v.1.15,2013-01-20 18:01:00,
2013-01-20 13:06:00,53.5,35.3,29.63,West,262,3.0,10.0,50,0.00,,,0.00,Wunderground v.1.15,2013-01-20 18:06:00,
2013-01-20 13:11:00,53.7,35.5,29.63,ENE,66,2.0,8.0,50,0.00,,,0.00,Wunderground v.1.15,2013-01-20 18:11:00,
2013-01-20 13:16:00,53.8,35.1,29.63,NW,322,9.0,15.0,49,0.00,,,0.00,Wunderground v.1.15,2013-01-20 18:16:00,
2013-01-20 13:21:00,53.7,35.0,29.62,South,170,4.0,12.0,49,0.00,,,0.00,Wunderground v.1.15,2013-01-20 18:21:00,
2013-01-20 13:26:00,53.4,34.7,29.63,SW,219,3.0,12.0,49,0.00,,,0.00,Wunderground v.1.15,2013-01-20 18:26:00,
2013-01-20 13:31:00,53.3,34.6,29.63,SW,220,4.0,12.0,49,0.00,,,0.00,Wunderground v.1.15,2013-01-20 18:31:00,
2013-01-20 13:36:00,53.3,34.6,29.62,SSW,193,2.0,12.0,49,0.00,,,0.00,Wunderground v.1.15,2013-01-20 18:36:00,
2013-01-20 13:41:00,53.1,34.9,29.63,West,270,4.0,7.0,50,0.00,,,0.00,Wunderground v.1.15,2013-01-20 18:41:00,
2013-01-20 13:46:00,52.8,35.2,29.63,NNE,12,4.0,14.0,51,0.00,,,0.00,Wunderground v.1.15,2013-01-20 18:46:00,
2013-01-20 13:51:00,52.4,35.3,29.63,SSW,210,2.0,8.0,52,0.00,,,0.00,Wunderground v.1.15,2013-01-20 18:51:00,
2013-01-20 13:56:00,52.1,35.0,29.63,SSW,198,1.0,9.0,52,0.00,,,0.00,Wunderground v.1.15,2013-01-20 18:56:00,
2013-01-20 14:01:00,51.9,34.8,29.63,WSW,242,11.0,11.0,52,0.00,,,0.00,Wunderground v.1.15,2013-01-20 19:01:00,
2013-01-20 14:07:00,51.8,35.2,29.63,SW,223,0.0,13.0,53,0.00,,,0.00,Wunderground v.1.15,2013-01-20 19:07:00,
2013-01-20 14:12:00,51.8,34.7,29.63,North,9,2.0,4.0,52,0.00,,,0.00,Wunderground v.1.15,2013-01-20 19:12:00,
2013-01-20 14:17:00,51.7,35.1,29.63,SW,214,7.0,14.0,53,0.00,,,0.00,Wunderground v.1.15,2013-01-20 19:17:00,
2013-01-20 14:22:00,51.5,35.4,29.64,NNE,29,0.0,7.0,54,0.00,,,0.00,Wunderground v.1.15,2013-01-20 19:22:00,
2013-01-20 14:27:00,51.5,35.4,29.64,SSW,200,1.0,7.0,54,0.00,,,0.00,Wunderground v.1.15,2013-01-20 19:27:00,
2013-01-20 14:32:00,51.5,34.9,29.64,ENE,62,0.0,6.0,53,0.00,,,0.00,Wunderground v.1.15,2013-01-20 19:32:00,
2013-01-20 14:37:00,51.5,34.9,29.65,WSW,248,0.0,6.0,53,0.00,,,0.00,Wunderground v.1.15,2013-01-20 19:37:00,
2013-01-20 14:42:00,51.6,34.0,29.65,South,190,0.0,5.0,51,0.00,,,0.00,Wunderground v.1.15,2013-01-20 19:42:00,
2013-01-20 14:47:00,51.5,34.0,29.65,SSW,202,5.0,9.0,51,0.00,,,0.00,Wunderground v.1.15,2013-01-20 19:47:00,
2013-01-20 14:52:00,51.5,33.5,29.65,NE,55,3.0,5.0,50,0.00,,,0.00,Wunderground v.1.15,2013-01-20 19:52:00,
2013-01-20 14:57:00,51.5,33.5,29.65,West,266,3.0,9.0,50,0.00,,,0.00,Wunderground v.1.15,2013-01-20 19:57:00,
2013-01-20 15:02:00,51.4,32.3,29.65,West,260,1.0,7.0,48,0.00,,,0.00,Wunderground v.1.15,2013-01-20 20:02:00,
2013-01-20 15:07:00,51.4,32.9,29.65,NW,318,1.0,7.0,49,0.00,,,0.00,Wunderground v.1.15,2013-01-20 20:07:00,
2013-01-20 15:12:00,51.4,32.9,29.66,NNW,341,1.0,2.0,49,0.00,,,0.00,Wunderground v.1.15,2013-01-20 20:12:00,
2013-01-20 15:17:00,51.3,32.3,29.66,NNW,327,3.0,9.0,48,0.00,,,0.00,Wunderground v.1.15,2013-01-20 20:17:00,
2013-01-20 15:22:00,51.4,31.3,29.67,SSW,206,1.0,3.0,46,0.00,,,0.00,Wunderground v.1.15,2013-01-20 20:22:00,
2013-01-20 15:27:00,51.3,31.2,29.66,NW,309,0.0,5.0,46,0.00,,,0.00,Wunderground v.1.15,2013-01-20 20:27:00,
2013-01-20 15:32:00,51.2,32.2,29.67,West,273,2.0,3.0,48,0.00,,,0.00,Wunderground v.1.15,2013-01-20 20:32:00,
2013-01-20 15:37:00,51.2,31.6,29.67,SSE,162,0.0,3.0,47,0.00,,,0.00,Wunderground v.1.15,2013-01-20 20:37:00,
2013-01-20 15:42:00,51.0,31.5,29.67,WNW,292,2.0,3.0,47,0.00,,,0.00,Wunderground v.1.15,2013-01-20 20:42:00,
2013-01-20 15:47:00,50.9,30.8,29.67,SW,219,0.0,5.0,46,0.00,,,0.00,Wunderground v.1.15,2013-01-20 20:47:00,
2013-01-20 15:52:00,50.8,31.8,29.68,NW,324,3.0,4.0,48,0.00,,,0.00,Wunderground v.1.15,2013-01-20 20:52:00,
2013-01-20 15:57:00,50.7,32.2,29.68,WNW,283,0.0,5.0,49,0.00,,,0.00,Wunderground v.1.15,2013-01-20 20:57:00,
2013-01-20 16:02:00,50.5,31.5,29.68,SE,140,0.0,3.0,48,0.00,,,0.00,Wunderground v.1.15,2013-01-20 21:02:00,
2013-01-20 16:07:00,50.3,31.8,29.68,NW,315,2.0,5.0,49,0.00,,,0.00,Wunderground v.1.15,2013-01-20 21:07:00,
2013-01-20 16:12:00,50.1,31.2,29.68,WNW,300,0.0,4.0,48,0.00,,,0.00,Wunderground v.1.15,2013-01-20 21:12:00,
2013-01-20 16:17:00,49.9,31.5,29.68,WSW,249,1.0,4.0,49,0.00,,,0.00,Wunderground v.1.15,2013-01-20 21:17:00,
2013-01-20 16:22:00,49.7,31.8,29.68,NW,307,1.0,1.0,50,0.00,,,0.00,Wunderground v.1.15,2013-01-20 21:22:00,
2013-01-20 16:27:00,49.3,31.4,29.69,SW,219,0.0,4.0,50,0.00,,,0.00,Wunderground v.1.15,2013-01-20 21:27:00,
2013-01-20 16:32:00,49.1,32.2,29.69,NNW,333,0.0,3.0,52,0.00,,,0.00,Wunderground v.1.15,2013-01-20 21:32:00,
2013-01-20 16:37:00,48.8,31.9,29.69,NNW,333,1.0,3.0,52,0.00,,,0.00,Wunderground v.1.15,2013-01-20 21:37:00,
2013-01-20 16:42:00,48.5,31.7,29.70,WSW,256,0.0,2.0,52,0.00,,,0.00,Wunderground v.1.15,2013-01-20 21:42:00,
2013-01-20 16:47:00,48.1,31.8,29.70,WSW,256,0.0,2.0,53,0.00,,,0.00,Wunderground v.1.15,2013-01-20 21:47:00,
2013-01-20 16:53:00,47.7,31.9,29.71,WSW,256,0.0,1.0,54,0.00,,,0.00,Wunderground v.1.15,2013-01-20 21:53:00,
2013-01-20 16:58:00,47.1,31.7,29.72,WSW,256,0.0,1.0,55,0.00,,,0.00,Wunderground v.1.15,2013-01-20 21:58:00,
2013-01-20 17:03:00,46.5,32.1,29.72,WNW,295,0.0,2.0,57,0.00,,,0.00,Wunderground v.1.15,2013-01-20 22:03:00,
2013-01-20 17:08:00,46.0,32.0,29.72,South,176,0.0,3.0,58,0.00,,,0.00,Wunderground v.1.15,2013-01-20 22:08:00,
2013-01-20 17:13:00,45.6,31.7,29.72,WNW,290,0.0,2.0,58,0.00,,,0.00,Wunderground v.1.15,2013-01-20 22:13:00,
2013-01-20 17:18:00,45.1,32.0,29.72,NW,322,0.0,3.0,60,0.00,,,0.00,Wunderground v.1.15,2013-01-20 22:18:00,
2013-01-20 17:23:00,44.7,29.5,29.73,NW,315,3.0,4.0,55,0.00,,,0.00,Wunderground v.1.15,2013-01-20 22:23:00,
2013-01-20 17:28:00,44.7,30.4,29.73,WNW,298,2.0,6.0,57,0.00,,,0.00,Wunderground v.1.15,2013-01-20 22:28:00,
2013-01-20 17:33:00,45.2,25.6,29.74,NW,304,3.0,8.0,46,0.00,,,0.00,Wunderground v.1.15,2013-01-20 22:33:00,
2013-01-20 17:38:00,45.8,24.5,29.74,NW,324,3.0,8.0,43,0.00,,,0.00,Wunderground v.1.15,2013-01-20 22:38:00,
2013-01-20 17:43:00,46.2,23.8,29.74,NW,319,6.0,7.0,41,0.00,,,0.00,Wunderground v.1.15,2013-01-20 22:43:00,
2013-01-20 17:48:00,46.5,22.8,29.75,NW,325,5.0,8.0,39,0.00,,,0.00,Wunderground v.1.15,2013-01-20 22:48:00,
2013-01-20 17:53:00,46.6,21.7,29.75,NNW,335,3.0,9.0,37,0.00,,,0.00,Wunderground v.1.15,2013-01-20 22:53:00,
2013-01-20 17:58:00,46.6,21.7,29.76,NW,313,4.0,9.0,37,0.00,,,0.00,Wunderground v.1.15,2013-01-20 22:58:00,
2013-01-20 18:03:00,46.5,21.6,29.76,SW,216,2.0,9.0,37,0.00,,,0.00,Wunderground v.1.15,2013-01-20 23:03:00,
2013-01-20 18:08:00,46.3,21.4,29.76,WNW,294,3.0,10.0,37,0.00,,,0.00,Wunderground v.1.15,2013-01-20 23:08:00,
2013-01-20 18:13:00,46.1,21.2,29.77,NNW,348,3.0,5.0,37,0.00,,,0.00,Wunderground v.1.15,2013-01-20 23:13:00,
2013-01-20 18:18:00,45.9,19.8,29.78,North,355,2.0,7.0,35,0.00,,,0.00,Wunderground v.1.15,2013-01-20 23:18:00,
2013-01-20 18:23:00,45.7,20.2,29.78,WNW,295,4.0,6.0,36,0.00,,,0.00,Wunderground v.1.15,2013-01-20 23:23:00,
2013-01-20 18:28:00,45.4,19.3,29.79,NNW,327,2.0,9.0,35,0.00,,,0.00,Wunderground v.1.15,2013-01-20 23:28:00,
2013-01-20 18:33:00,45.0,19.0,29.79,NNW,333,3.0,6.0,35,0.00,,,0.00,Wunderground v.1.15,2013-01-20 23:33:00,
2013-01-20 18:38:00,44.6,19.9,29.80,NNW,344,5.0,6.0,37,0.00,,,0.00,Wunderground v.1.15,2013-01-20 23:38:00,
2013-01-20 18:43:00,43.9,19.9,29.81,NW,311,4.0,12.0,38,0.00,,,0.00,Wunderground v.1.15,2013-01-20 23:43:00,
2013-01-20 18:48:00,43.2,19.9,29.81,NNW,340,5.0,12.0,39,0.00,,,0.00,Wunderground v.1.15,2013-01-20 23:48:00,
2013-01-20 18:53:00,42.7,20.6,29.81,NW,319,1.0,8.0,41,0.00,,,0.00,Wunderground v.1.15,2013-01-20 23:53:00,
2013-01-20 18:58:00,42.2,20.2,29.81,North,5,2.0,8.0,41,0.00,,,0.00,Wunderground v.1.15,2013-01-20 23:58:00,
2013-01-20 19:03:00,41.8,20.4,29.82,NW,309,3.0,7.0,42,0.00,,,0.00,Wunderground v.1.15,2013-01-21 00:03:00,
2013-01-20 19:09:00,41.5,20.6,29.82,NNW,340,0.0,7.0,43,0.00,,,0.00,Wunderground v.1.15,2013-01-21 00:09:00,
2013-01-20 19:14:00,41.2,20.4,29.82,West,272,2.0,5.0,43,0.00,,,0.00,Wunderground v.1.15,2013-01-21 00:14:00,
2013-01-20 19:19:00,40.7,20.5,29.83,NW,318,3.0,9.0,44,0.00,,,0.00,Wunderground v.1.15,2013-01-21 00:19:00,
2013-01-20 19:24:00,40.3,20.1,29.83,NW,317,3.0,8.0,44,0.00,,,0.00,Wunderground v.1.15,2013-01-21 00:24:00,
2013-01-20 19:29:00,40.0,20.3,29.83,NNW,333,3.0,8.0,45,0.00,,,0.00,Wunderground v.1.15,2013-01-21 00:29:00,
2013-01-20 19:34:00,39.7,20.1,29.84,WNW,302,3.0,8.0,45,0.00,,,0.00,Wunderground v.1.15,2013-01-21 00:34:00,
2013-01-20 19:39:00,39.4,20.3,29.84,WNW,295,4.0,8.0,46,0.00,,,0.00,Wunderground v.1.15,2013-01-21 00:39:00,
2013-01-20 19:44:00,39.1,20.5,29.84,North,351,2.0,10.0,47,0.00,,,0.00,Wunderground v.1.15,2013-01-21 00:44:00,
2013-01-20 19:49:00,38.8,20.3,29.85,North,350,0.0,10.0,47,0.00,,,0.00,Wunderground v.1.15,2013-01-21 00:49:00,
2013-01-20 19:54:00,38.6,20.1,29.85,NNW,348,4.0,5.0,47,0.00,,,0.00,Wunderground v.1.15,2013-01-21 00:54:00,
2013-01-20 19:59:00,38.3,19.8,29.85,NW,315,2.0,8.0,47,0.00,,,0.00,Wunderground v.1.15,2013-01-21 00:59:00,
2013-01-20 20:04:00,38.2,20.2,29.86,NNW,329,7.0,7.0,48,0.00,,,0.00,Wunderground v.1.15,2013-01-21 01:04:00,
2013-01-20 20:09:00,38.0,19.5,29.86,NNW,335,3.0,10.0,47,0.00,,,0.00,Wunderground v.1.15,2013-01-21 01:09:00,
2013-01-20 20:14:00,37.8,19.3,29.86,NW,324,7.0,8.0,47,0.00,,,0.00,Wunderground v.1.15,2013-01-21 01:14:00,
2013-01-20 20:19:00,37.6,19.7,29.87,West,277,4.0,9.0,48,0.00,,,0.00,Wunderground v.1.15,2013-01-21 01:19:00,
2013-01-20 20:24:00,37.4,19.5,29.87,WSW,252,2.0,8.0,48,0.00,,,0.00,Wunderground v.1.15,2013-01-21 01:24:00,
2013-01-20 20:29:00,37.2,19.8,29.88,WNW,297,2.0,8.0,49,0.00,,,0.00,Wunderground v.1.15,2013-01-21 01:29:00,
2013-01-20 20:34:00,36.9,19.5,29.88,NW,316,1.0,6.0,49,0.00,,,0.00,Wunderground v.1.15,2013-01-21 01:34:00,
2013-01-20 20:39:00,36.6,19.7,29.88,NNW,330,2.0,6.0,50,0.00,,,0.00,Wunderground v.1.15,2013-01-21 01:39:00,
2013-01-20 20:44:00,36.4,20.0,29.89,NNW,327,0.0,5.0,51,0.00,,,0.00,Wunderground v.1.15,2013-01-21 01:44:00,
2013-01-20 20:49:00,36.2,19.8,29.89,NNE,32,5.0,10.0,51,0.00,,,0.00,Wunderground v.1.15,2013-01-21 01:49:00,
2013-01-20 20:54:00,35.9,19.0,29.89,NNW,348,3.0,8.0,50,0.00,,,0.00,Wunderground v.1.15,2013-01-21 01:54:00,
2013-01-20 20:59:00,35.8,19.0,29.90,NW,314,2.0,8.0,50,0.00,,,0.00,Wunderground v.1.15,2013-01-21 01:59:00,
2013-01-20 21:04:00,35.7,18.9,29.90,NW,321,2.0,13.0,50,0.00,,,0.00,Wunderground v.1.15,2013-01-21 02:04:00,
2013-01-20 21:09:00,35.5,19.6,29.90,NW,314,0.0,13.0,52,0.00,,,0.00,Wunderground v.1.15,2013-01-21 02:09:00,
2013-01-20 21:14:00,35.3,19.4,29.91,NNW,329,4.0,5.0,52,0.00,,,0.00,Wunderground v.1.15,2013-01-21 02:14:00,
2013-01-20 21:19:00,35.1,19.2,29.91,NE,41,5.0,7.0,52,0.00,,,0.00,Wunderground v.1.15,2013-01-21 02:19:00,
2013-01-20 21:24:00,34.9,18.6,29.91,NW,321,5.0,6.0,51,0.00,,,0.00,Wunderground v.1.15,2013-01-21 02:24:00,
2013-01-20 21:29:00,34.8,18.5,29.91,WNW,289,4.0,6.0,51,0.00,,,0.00,Wunderground v.1.15,2013-01-21 02:29:00,
2013-01-20 21:34:00,34.7,18.4,29.92,NW,324,3.0,8.0,51,0.00,,,0.00,Wunderground v.1.15,2013-01-21 02:34:00,
2013-01-20 21:39:00,34.6,18.8,29.92,NW,325,3.0,8.0,52,0.00,,,0.00,Wunderground v.1.15,2013-01-21 02:39:00,
2013-01-20 21:44:00,34.4,18.6,29.92,NNW,338,1.0,5.0,52,0.00,,,0.00,Wunderground v.1.15,2013-01-21 02:44:00,
2013-01-20 21:49:00,34.2,18.4,29.93,NNW,345,0.0,7.0,52,0.00,,,0.00,Wunderground v.1.15,2013-01-21 02:49:00,
2013-01-20 21:54:00,34.1,18.3,29.93,NNW,333,2.0,8.0,52,0.00,,,0.00,Wunderground v.1.15,2013-01-21 02:54:00,
2013-01-20 21:59:00,34.0,18.2,29.93,NNE,27,1.0,8.0,52,0.00,,,0.00,Wunderground v.1.15,2013-01-21 02:59:00,
2013-01-20 22:04:00,33.8,18.0,29.93,WNW,298,4.0,5.0,52,0.00,,,0.00,Wunderground v.1.15,2013-01-21 03:04:00,
2013-01-20 22:09:00,33.7,17.9,29.93,North,355,2.0,5.0,52,0.00,,,0.00,Wunderground v.1.15,2013-01-21 03:09:00,
2013-01-20 22:14:00,33.4,18.1,29.93,NW,313,1.0,7.0,53,0.00,,,0.00,Wunderground v.1.15,2013-01-21 03:14:00,
2013-01-20 22:19:00,33.3,18.0,29.93,NW,322,5.0,7.0,53,0.00,,,0.00,Wunderground v.1.15,2013-01-21 03:19:00,
2013-01-20 22:24:00,33.1,17.8,29.94,NW,315,3.0,4.0,53,0.00,,,0.00,Wunderground v.1.15,2013-01-21 03:24:00,
2013-01-20 22:29:00,33.0,17.7,29.94,NNW,338,3.0,9.0,53,0.00,,,0.00,Wunderground v.1.15,2013-01-21 03:29:00,
2013-01-20 22:34:00,32.8,17.5,29.94,NW,317,2.0,6.0,53,0.00,,,0.00,Wunderground v.1.15,2013-01-21 03:34:00,
2013-01-20 22:39:00,32.7,17.4,29.94,NNW,331,2.0,6.0,53,0.00,,,0.00,Wunderground v.1.15,2013-01-21 03:39:00,
2013-01-20 22:45:00,32.6,16.9,29.94,WNW,298,1.0,5.0,52,0.00,,,0.00,Wunderground v.1.15,2013-01-21 03:45:00,
2013-01-20 22:50:00,32.5,17.2,29.94,NW,323,3.0,3.0,53,0.00,,,0.00,Wunderground v.1.15,2013-01-21 03:50:00,
2013-01-20 22:55:00,32.4,17.2,29.94,NNW,340,1.0,3.0,53,0.00,,,0.00,Wunderground v.1.15,2013-01-21 03:55:00,
2013-01-20 23:00:00,32.2,17.0,29.95,WSW,248,0.0,3.0,53,0.00,,,0.00,Wunderground v.1.15,2013-01-21 04:00:00,
2013-01-20 23:05:00,32.1,16.4,29.95,NW,313,2.0,5.0,52,0.00,,,0.00,Wunderground v.1.15,2013-01-21 04:05:00,
2013-01-20 23:10:00,31.9,16.7,29.95,NW,326,2.0,2.0,53,0.00,,,0.00,Wunderground v.1.15,2013-01-21 04:10:00,
2013-01-20 23:15:00,31.8,17.0,29.95,NW,325,0.0,4.0,54,0.00,,,0.00,Wunderground v.1.15,2013-01-21 04:15:00,
2013-01-20 23:20:00,31.6,16.4,29.95,NW,309,2.0,2.0,53,0.00,,,0.00,Wunderground v.1.15,2013-01-21 04:20:00,
2013-01-20 23:25:00,31.5,16.3,29.95,NNW,334,2.0,6.0,53,0.00,,,0.00,Wunderground v.1.15,2013-01-21 04:25:00,
2013-01-20 23:30:00,31.4,16.7,29.95,WNW,298,3.0,3.0,54,0.00,,,0.00,Wunderground v.1.15,2013-01-21 04:30:00,
2013-01-20 23:35:00,31.3,16.1,29.95,NW,312,2.0,7.0,53,0.00,,,0.00,Wunderground v.1.15,2013-01-21 04:35:00,
2013-01-20 23:40:00,31.2,16.5,29.95,NNW,329,3.0,3.0,54,0.00,,,0.00,Wunderground v.1.15,2013-01-21 04:40:00,
2013-01-20 23:45:00,31.1,16.4,29.95,WSW,248,5.0,8.0,54,0.00,,,0.00,Wunderground v.1.15,2013-01-21 04:45:00,
2013-01-20 23:50:00,31.0,16.3,29.95,NW,319,1.0,3.0,54,0.00,,,0.00,Wunderground v.1.15,2013-01-21 04:50:00,
2013-01-20 23:55:00,31.0,16.3,29.95,NNW,329,5.0,6.0,54,0.00,,,0.00,Wunderground v.1.15,2013-01-21 04:55:00,